Погода в Зеленодольске

Украина / Днепропетровская область     47°34′06″N   33°38′51″E
темп.,
°C
ветер,
м/с
пор.,
м/с
влажн.,
%
обл.,
%
осадки,
мм/ч
давл.,
гПа
погр.,
м
11 мая, вт
вт1100:00+9сз51364100 0.0 1019290
03:00+11ссз71363100 0.0 1017773
06:00+10ссз61275100 0.1 1016568
09:00+12ссз71168100 0.1 1016615
12:00+17с8116495 0.0 10151178
15:00+15ссв71169100 0.1 10151281
18:00+13св4877100 0.2 1015671
21:00+10св3870100 0.2 1015269
12 мая, ср
ср1200:00+7с34835 0.0 101564
03:00+5ссв379473 0.0 1015143
06:00+8ссв468698 0.2 1014369
09:00+11всв556769 0.4 10141152
12:00+13всв445796 0.4 10141512
15:00+13ссв225664 0.5 1014985
18:00+13св225677 0.0 1013726
21:00+9в22715 0.0 101412
13 мая, чт
чт1300:00+9юв227675 0.0 101426
03:00+8юв22904 0.0 101316
06:00+9в35904 0.0 101398
09:00+14вюв4576100 0.0 1013612
12:00+18вюв5559100 0.0 10121025
15:00+21вюв4550100 0.0 10111520
18:00+20в355988 0.0 1010578
21:00+15юв477694 0.0 1010107
14 мая, пт
пт1400:00+13ююв3388100 0.0 101031
03:00+12ю229115 0.0 101020
06:00+12юз229088 0.0 101035
09:00+18ююз335395 0.0 1010415
12:00+23ю3442100 0.0 1010937
15:00+24ю4540100 0.0 10101287
18:00+23ю3449100 0.0 1009563
21:00+16юз46726 0.3 101087
15 мая, сб
сб1500:00+14зюз478147 0.0 1010110
03:00+12зюз34894 0.0 101162
06:00+12юз359134 0.0 1011122
09:00+18зюз4570100 0.0 1012478
12:00+22юз5755100 0.3 10121569
15:00+23юз474934 1.2 10121956
18:00+22зюз57470 0.0 10131349
21:00+15ссз118348 0.0 101411